Bluffton, MN

10:55 AM CDT on July 23, 2016 (GMT -0500)
Wadena Municipal

Weather History for KADC - January, 2013

Change the Weather History Date:

Thursday, January 17, 2013

  Actual Average Record
Temperature  
Mean Temperature 3 °F -  
Max Temperature 10 °F 15 °F 42 °F (1973)
Min Temperature -4 °F -4 °F -34 °F (1962)
Degree Days  
Heating Degree Days 62    
Moisture  
Dew Point -3 °F    
Average Humidity 72    
Maximum Humidity 85    
Minimum Humidity 55    
Precipitation  
Precipitation 0.00 in - - ()
Sea Level Pressure  
Sea Level Pressure 30.27 in    
Wind  
Wind Speed 5 mph (West)    
Max Wind Speed 14 mph    
Max Gust Speed 20 mph    
Visibility 9 miles    
Events Snow    
Averages and records for this station are not official NWS values.
T = Trace of Precipitation, MM = Missing Value Source: NWS Daily Summary

Daily Weather History Graph

Daily Weather History Graph

Search for Another Location

Airport or City:

Trip Planner

Search our weather history database for the weather conditions in past years. The results will help you decide how hot, cold, wet, or windy it might be!

Date:

Astronomy

Jan. 17, 2013 Rise Set
Actual Time 7:58 AM CST 5:03 PM CST
Civil Twilight 7:25 AM CST 5:37 PM CST
Nautical Twilight 6:47 AM CST 6:14 PM CST
Astronomical Twilight 6:11 AM CST 6:50 PM CST
Moon 10:40 AM CST (1/17) No Moon Set
Length of Visible Light 10h 12m
Length of Day
9h 05m
Waxing Crescent, 38% of the Moon is Illuminated
Jan 17
Waxing Crescent
Jan 18
First Quarter
Jan 26
Full
Feb 3
Last Quarter
Feb 10
New

Hourly Weather History & Observations

Time (CST) Temp. Windchill Dew Point Humidity Pressure Visibility Wind Dir Wind Speed Gust Speed Precip Events Conditions
12:14 AM -4.0 °F -20.2 °F -11.2 °F 71% 30.24 in 10.0 mi WNW 9.2 mph - N/A   Overcast
12:35 AM -4.0 °F -17.8 °F -11.2 °F 71% 30.24 in 10.0 mi NW 6.9 mph - N/A Snow Light Snow
12:52 AM -4.0 °F -17.8 °F -11.2 °F 71% 30.24 in 10.0 mi NW 6.9 mph - N/A   Overcast
1:15 AM -2.2 °F - -11.2 °F 66% 30.23 in 10.0 mi Calm Calm - N/A   Overcast
1:35 AM -2.2 °F - -11.2 °F 66% 30.23 in 10.0 mi Calm Calm - N/A   Overcast
1:53 AM -2.2 °F -10.4 °F -13.0 °F 60% 30.23 in 10.0 mi NW 3.5 mph - N/A Snow Light Snow
2:15 AM -2.2 °F -10.4 °F -11.2 °F 66% 30.24 in 10.0 mi West 3.5 mph - N/A   Overcast
2:34 AM -2.2 °F - -11.2 °F 66% 30.25 in 10.0 mi Calm Calm - N/A   Overcast
2:53 AM -2.2 °F -10.4 °F -11.2 °F 66% 30.25 in 10.0 mi West 3.5 mph - N/A   Overcast
3:35 AM -2.2 °F - -11.2 °F 66% 30.25 in 10.0 mi Calm Calm - N/A   Overcast
3:53 AM -2.2 °F -10.4 °F -11.2 °F 66% 30.25 in 10.0 mi SW 3.5 mph - N/A   Overcast
4:15 AM -2.2 °F -14.2 °F -11.2 °F 66% 30.25 in 10.0 mi SW 5.8 mph - N/A   Overcast
4:35 AM -2.2 °F -14.2 °F -11.2 °F 66% 30.25 in 10.0 mi WSW 5.8 mph - N/A   Overcast
5:15 AM -0.4 °F -13.4 °F -13.0 °F 55% 30.24 in 10.0 mi WSW 6.9 mph - N/A   Overcast
5:35 AM -0.4 °F -12.0 °F -13.0 °F 55% 30.25 in 10.0 mi WSW 5.8 mph - N/A   Overcast
5:53 AM -0.4 °F -12.0 °F -11.2 °F 60% 30.25 in 10.0 mi SW 5.8 mph - N/A   Overcast
6:15 AM -0.4 °F -10.4 °F -9.4 °F 66% 30.25 in 10.0 mi SW 4.6 mph - N/A Snow Light Snow
6:34 AM -0.4 °F -13.4 °F -7.6 °F 72% 30.25 in 10.0 mi SW 6.9 mph - N/A Snow Light Snow
6:53 AM -0.4 °F -14.7 °F -7.6 °F 72% 30.25 in 2.5 mi SW 8.1 mph - N/A Snow Light Snow
7:15 AM -0.4 °F -14.7 °F -7.6 °F 72% 30.25 in 7.0 mi SW 8.1 mph - N/A Snow Light Snow
7:35 AM -0.4 °F -13.4 °F -7.6 °F 72% 30.25 in 4.0 mi WSW 6.9 mph - N/A Snow Light Snow
7:53 AM -0.4 °F -13.4 °F -7.6 °F 72% 30.26 in 4.0 mi WSW 6.9 mph - N/A Snow Light Snow
8:14 AM -0.4 °F -8.3 °F -7.6 °F 72% 30.26 in 2.5 mi West 3.5 mph - N/A Snow Light Snow
8:35 AM -0.4 °F -8.3 °F -5.8 °F 78% 30.27 in 5.0 mi West 3.5 mph - N/A Snow Light Snow
8:53 AM -0.4 °F -10.4 °F -5.8 °F 78% 30.29 in 3.0 mi West 4.6 mph - N/A Snow Light Snow
9:15 AM 1.4 °F -6.2 °F -4.0 °F 78% 30.29 in 2.0 mi West 3.5 mph - N/A Snow Light Snow
9:35 AM 1.4 °F - -2.2 °F 85% 30.30 in 2.0 mi Calm Calm - N/A Snow Light Snow
9:52 AM 3.2 °F -6.2 °F -2.2 °F 78% 30.30 in 2.0 mi West 4.6 mph - N/A Snow Light Snow
10:15 AM 3.2 °F -7.8 °F -2.2 °F 78% 30.30 in 2.5 mi West 5.8 mph - N/A Snow Light Snow
10:34 AM 6.8 °F -5.9 °F -0.4 °F 72% 30.30 in 5.0 mi WNW 8.1 mph - N/A Snow Light Snow
10:53 AM 8.6 °F -4.7 °F 1.4 °F 73% 30.31 in 10.0 mi WNW 9.2 mph - N/A   Scattered Clouds
11:15 AM 8.6 °F -7.0 °F 1.4 °F 73% 30.31 in 10.0 mi NW 12.7 mph - N/A   Clear
11:35 AM 8.6 °F -7.0 °F 1.4 °F 73% 30.32 in 10.0 mi WNW 12.7 mph 17.3 mph N/A   Clear
11:53 AM 8.6 °F -5.5 °F 1.4 °F 73% 30.31 in 10.0 mi NW 10.4 mph - N/A   Clear
12:14 PM 8.6 °F -5.5 °F 1.4 °F 73% 30.30 in 10.0 mi WNW 10.4 mph - N/A   Clear
12:35 PM 10.4 °F -4.8 °F 1.4 °F 67% 30.30 in 10.0 mi NW 12.7 mph - N/A   Clear
12:53 PM 10.4 °F -5.4 °F 1.4 °F 67% 30.30 in 10.0 mi WNW 13.8 mph 19.6 mph N/A   Scattered Clouds
1:15 PM 10.4 °F -3.3 °F 3.2 °F 73% 30.30 in 10.0 mi WNW 10.4 mph - N/A   Clear
1:35 PM 10.4 °F -3.3 °F 1.4 °F 67% 30.30 in 10.0 mi WNW 10.4 mph - N/A   Clear
1:53 PM 10.4 °F -4.1 °F 1.4 °F 67% 30.30 in 10.0 mi NW 11.5 mph - N/A   Clear
2:15 PM 10.4 °F -2.4 °F 1.4 °F 67% 30.30 in 10.0 mi WNW 9.2 mph - N/A   Clear
2:35 PM 10.4 °F -1.5 °F 1.4 °F 67% 30.30 in 10.0 mi WNW 8.1 mph - N/A   Clear
2:53 PM 10.4 °F 0.8 °F 1.4 °F 67% 30.30 in 10.0 mi NW 5.8 mph - N/A   Clear
3:15 PM 10.4 °F -0.4 °F 1.4 °F 67% 30.30 in 10.0 mi WNW 6.9 mph - N/A   Clear
3:34 PM 8.6 °F -2.6 °F 1.4 °F 73% 30.31 in 10.0 mi WNW 6.9 mph - N/A   Clear
3:53 PM 8.6 °F -2.6 °F 1.4 °F 73% 30.31 in 10.0 mi West 6.9 mph - N/A   Clear
4:15 PM 8.6 °F 0.1 °F -0.4 °F 67% 30.31 in 10.0 mi WNW 4.6 mph - N/A   Clear
4:34 PM 6.8 °F -2.0 °F -0.4 °F 72% 30.30 in 10.0 mi West 4.6 mph - N/A   Clear
4:53 PM 6.8 °F -2.0 °F -2.2 °F 67% 30.30 in 10.0 mi West 4.6 mph - N/A   Clear
5:15 PM 5.0 °F -4.1 °F -2.2 °F 72% 30.30 in 10.0 mi West 4.6 mph - N/A   Clear
5:35 PM 3.2 °F -6.2 °F -2.2 °F 78% 30.30 in 10.0 mi West 4.6 mph - N/A   Clear
5:53 PM 5.0 °F -4.1 °F -0.4 °F 78% 30.30 in 10.0 mi West 4.6 mph - N/A   Scattered Clouds
6:15 PM 5.0 °F -2.1 °F -0.4 °F 78% 30.30 in 10.0 mi West 3.5 mph - N/A   Mostly Cloudy
6:35 PM 5.0 °F - -0.4 °F 78% 30.30 in 10.0 mi Calm Calm - N/A   Scattered Clouds
6:53 PM 5.0 °F - -2.2 °F 72% 30.29 in 10.0 mi Calm Calm - N/A   Scattered Clouds
7:15 PM 3.2 °F - -2.2 °F 78% 30.28 in 10.0 mi Calm Calm - N/A   Scattered Clouds
7:35 PM 3.2 °F - -2.2 °F 78% 30.29 in 10.0 mi Calm Calm - N/A   Mostly Cloudy
7:52 PM 5.0 °F - -0.4 °F 78% 30.28 in 10.0 mi Calm Calm - N/A   Overcast
8:14 PM 5.0 °F - -0.4 °F 78% 30.27 in 10.0 mi Calm Calm - N/A   Overcast
8:53 PM 6.8 °F - -0.4 °F 72% 30.26 in 10.0 mi Calm Calm - N/A   Overcast
9:14 PM 6.8 °F - -0.4 °F 72% 30.25 in 10.0 mi Calm Calm - N/A   Overcast
9:35 PM 6.8 °F - -0.4 °F 72% 30.23 in 10.0 mi Calm Calm - N/A   Overcast
9:53 PM 6.8 °F - 1.4 °F 79% 30.22 in 10.0 mi Calm Calm - N/A   Overcast
10:15 PM 6.8 °F - 1.4 °F 79% 30.21 in 10.0 mi Calm Calm - N/A   Overcast
10:35 PM 6.8 °F -2.0 °F 1.4 °F 79% 30.20 in 7.0 mi SSE 4.6 mph - N/A Snow Light Snow
10:52 PM 8.6 °F 0.1 °F 1.4 °F 73% 30.20 in 10.0 mi SSE 4.6 mph - N/A   Overcast
11:15 PM 8.6 °F 2.0 °F 3.2 °F 79% 30.18 in 10.0 mi SE 3.5 mph - N/A Snow Light Snow
11:35 PM 8.6 °F -2.6 °F 3.2 °F 79% 30.16 in 4.0 mi SSE 6.9 mph - N/A Snow Light Snow
11:52 PM 8.6 °F -1.3 °F 3.2 °F 79% 30.15 in 4.0 mi SE 5.8 mph - N/A Snow Light Snow